sat.trackr.live / text

‹ back to catalog

KUZGTU 1 (RS47S)

NORAD 57217 · 2023-091AV

PAYLOAD ACTIVE UNKNOWN

§ Identity

Operator
Country
CIS
Launch date
2023-06-27
Launch site
VOSTO
Launch vehicle
Mass (kg)
RCS (m²)

Purposes: comms

External: N2YO · Heavens-Above · Gunter

§ Orbital elements

Epoch: 2026-05-25T03:17:29.805792Z

Period
94.16 min
Inclination
97.5077°
Eccentricity
0.0011627
Mean motion
15.29243506 rev/d
Perigee alt
470.1 km
Apogee alt
486.0 km
Semi-major
6,856.2 km
B*
4.1663e-4
RAAN
209.3914°
Arg perigee
170.2680°
Mean anomaly
189.8787°
Rev number
16,085

§ Raw data

KUZGTU 1 (RS47S)1 57217U 23091AV  26145.13715053  .00011773  00000+0  41663-3 0  99912 57217  97.5077 209.3914 0011627 170.2680 189.8787 15.29243506160853

JSON: /api/v1/satellites/57217 · /tle

For live sub-satellite position, see the globe view (requires WebGL).

§ Visibility from observer

Set your observer location to see the next 7 days of passes ≥ 10°. The values pass through the URL so the page stays shareable.

No JS? Fill the form by hand. The geolocation button needs JavaScript.

§ Radio — SatNOGS DB

ModeDescriptionDownlinkUplink
GMSK USP Mode U - GMSK 4k8 (USP FEC) TLM 437.100 MHz

1 transmitter · refreshed weekly from db.satnogs.org